| time (UTC) | temp C | wind direction | speed KPH | gust KPH | rain 1hr cm | rain 24hr cm | rain mn cm | humidity % | barometer mb |
| 20260504070120 | 3 | 21 | 0.0 | 1.6 | 0.00 | 0.00 | 0.00 | 86 | 1013.1 |
| 20260504050508 | 5 | 62 | 0.0 | 0.0 | 0.00 | 0.00 | 0.00 | 80 | 1013.4 |
| 20260504050005 | 5 | 62 | 0.0 | 0.0 | 0.00 | 0.00 | 0.00 | 80 | 1013.8 |
| 20260504045502 | 5 | 63 | 0.0 | 0.0 | 0.00 | 0.00 | 0.00 | 79 | 1013.7 |
| 20260504044957 | 5 | 27 | 0.0 | 1.6 | 0.00 | 0.00 | 0.00 | 79 | 1013.9 |
| 20260504044455 | 5 | 57 | 0.0 | 0.0 | 0.00 | 0.00 | 0.00 | 78 | 1013.8 |
| 20260504043952 | 5 | 57 | 0.0 | 0.0 | 0.00 | 0.00 | 0.00 | 79 | 1013.9 |
| 20260504043449 | 5 | 57 | 0.0 | 0.0 | 0.00 | 0.00 | 0.00 | 79 | 1013.9 |
| 20260504042947 | 5 | 48 | 0.0 | 1.6 | 0.00 | 0.00 | 0.00 | 78 | 1013.8 |
| 20260504042443 | 5 | 43 | 0.0 | 0.0 | 0.00 | 0.00 | 0.00 | 78 | 1013.9 |
| 20260504041940 | 5 | 43 | 0.0 | 1.6 | 0.00 | 0.00 | 0.00 | 78 | 1014.0 |
| 20260504041436 | 5 | 47 | 0.0 | 1.6 | 0.00 | 0.00 | 0.00 | 79 | 1014.0 |
| 20260504040932 | 5 | 47 | 0.0 | 1.6 | 0.00 | 0.00 | 0.00 | 79 | 1013.9 |
| 20260504040430 | 5 | 36 | 0.0 | 1.6 | 0.00 | 0.00 | 0.00 | 79 | 1013.8 |
| 20260504035925 | 5 | 31 | 0.0 | 1.6 | 0.00 | 0.00 | 0.00 | 78 | 1013.9 |
| 20260504035423 | 5 | 31 | 0.0 | 0.0 | 0.00 | 0.00 | 0.00 | 79 | 1013.9 |
| 20260504034920 | 5 | 31 | 0.0 | 0.0 | 0.00 | 0.00 | 0.00 | 79 | 1013.9 |
| 20260504034417 | 5 | 30 | 1.6 | 1.6 | 0.00 | 0.00 | 0.00 | 79 | 1014.0 |
| 20260504033914 | 5 | 28 | 0.0 | 1.6 | 0.00 | 0.00 | 0.00 | 79 | 1013.7 |
| 20260504033412 | 4 | 33 | 0.0 | 0.0 | 0.00 | 0.00 | 0.00 | 79 | 1013.8 |
| 20260504032909 | 4 | 9 | 0.0 | 1.6 | 0.00 | 0.00 | 0.00 | 79 | 1013.8 |
| 20260504032406 | 5 | 32 | 0.0 | 1.6 | 0.00 | 0.00 | 0.00 | 79 | 1013.9 |
| 20260504031902 | 5 | 32 | 0.0 | 1.6 | 0.00 | 0.00 | 0.00 | 79 | 1013.9 |
| 20260504031359 | 4 | 33 | 0.0 | 0.0 | 0.00 | 0.00 | 0.00 | 79 | 1013.7 |
| 20260504030855 | 4 | 32 | 0.0 | 0.0 | 0.00 | 0.00 | 0.00 | 80 | 1013.7 |
| 20260504030353 | 4 | 33 | 0.0 | 0.0 | 0.00 | 0.00 | 0.00 | 79 | 1013.7 |
| 20260504025849 | 4 | 35 | 0.0 | 1.6 | 0.00 | 0.00 | 0.00 | 79 | 1013.9 |
| 20260504025346 | 4 | 37 | 0.0 | 1.6 | 0.00 | 0.00 | 0.00 | 79 | 1013.7 |
| 20260504024843 | 4 | 41 | 0.0 | 0.0 | 0.00 | 0.00 | 0.00 | 78 | 1013.8 |
| 20260504024339 | 5 | 41 | 0.0 | 0.0 | 0.00 | 0.00 | 0.00 | 77 | 1013.6 |
| 20260504023836 | 5 | 41 | 0.0 | 1.6 | 0.00 | 0.00 | 0.00 | 77 | 1013.6 |
| 20260504023333 | 5 | 42 | 0.0 | 1.6 | 0.00 | 0.00 | 0.00 | 76 | 1013.6 |
| 20260504022828 | 5 | 42 | 0.0 | 1.6 | 0.00 | 0.00 | 0.00 | 77 | 1013.5 |
| 20260504022326 | 5 | 42 | 0.0 | 0.0 | 0.00 | 0.00 | 0.00 | 74 | 1013.7 |
| 20260504021822 | 5 | 42 | 0.0 | 0.0 | 0.00 | 0.00 | 0.00 | 74 | 1013.7 |
| 20260504021320 | 5 | 42 | 0.0 | 1.6 | 0.00 | 0.00 | 0.00 | 74 | 1013.5 |
| 20260504020817 | 6 | 62 | 0.0 | 0.0 | 0.00 | 0.00 | 0.00 | 71 | 1013.8 |
| 20260504020313 | 6 | 62 | 0.0 | 0.0 | 0.00 | 0.00 | 0.00 | 71 | 1013.7 |
| 20260504015809 | 6 | 62 | 0.0 | 1.6 | 0.00 | 0.00 | 0.00 | 73 | 1013.7 |
| 20260504015305 | 6 | 69 | 0.0 | 0.0 | 0.00 | 0.00 | 0.00 | 73 | 1013.7 |
| 20260504014801 | 6 | 61 | 0.0 | 0.0 | 0.00 | 0.00 | 0.00 | 69 | 1013.7 |
| 20260504014258 | 6 | 60 | 0.0 | 0.0 | 0.00 | 0.00 | 0.00 | 70 | 1013.7 |
| 20260504013755 | 6 | 61 | 0.0 | 0.0 | 0.00 | 0.00 | 0.00 | 71 | 1013.7 |
| 20260504013253 | 6 | 60 | 0.0 | 0.0 | 0.00 | 0.00 | 0.00 | 70 | 1013.6 |
| 20260504012749 | 7 | 60 | 0.0 | 0.0 | 0.00 | 0.00 | 0.00 | 68 | 1013.5 |
| 20260504012247 | 7 | 61 | 0.0 | 0.0 | 0.00 | 0.00 | 0.00 | 66 | 1013.5 |
| 20260504011744 | 7 | 60 | 0.0 | 0.0 | 0.00 | 0.00 | 0.00 | 63 | 1013.4 |
| 20260504011241 | 7 | 62 | 0.0 | 1.6 | 0.00 | 0.00 | 0.00 | 64 | 1013.3 |
| 20260504010737 | 7 | 62 | 0.0 | 0.0 | 0.00 | 0.00 | 0.00 | 64 | 1013.3 |
| 20260504010232 | 8 | 62 | 0.0 | 0.0 | 0.00 | 0.00 | 0.00 | 59 | 1013.2 |
| 20260504005730 | 8 | 62 | 0.0 | 1.6 | 0.00 | 0.00 | 0.00 | 61 | 1013.2 |
| 20260504005227 | 8 | 62 | 0.0 | 0.0 | 0.00 | 0.00 | 0.00 | 58 | 1013.0 |
| 20260504004724 | 8 | 62 | 0.0 | 0.0 | 0.00 | 0.00 | 0.00 | 57 | 1013.1 |
| 20260504004221 | 8 | 62 | 1.6 | 1.6 | 0.00 | 0.00 | 0.00 | 57 | 1013.1 |
| 20260504003718 | 9 | 52 | 0.0 | 0.0 | 0.00 | 0.00 | 0.00 | 55 | 1013.0 |
| 20260504003215 | 9 | 49 | 0.0 | 1.6 | 0.00 | 0.00 | 0.00 | 56 | 1012.9 |
| 20260504002711 | 9 | 51 | 0.0 | 1.6 | 0.00 | 0.00 | 0.00 | 53 | 1013.0 |
| 20260504002208 | 10 | 62 | 1.6 | 1.6 | 0.00 | 0.00 | 0.00 | 54 | 1012.9 |
| 20260504001706 | 10 | 76 | 0.0 | 1.6 | 0.00 | 0.00 | 0.00 | 54 | 1012.9 |
| 20260504001203 | 10 | 65 | 0.0 | 3.2 | 0.00 | 0.00 | 0.00 | 51 | 1012.7 |
| 20260504000700 | 10 | 41 | 1.6 | 4.8 | 0.00 | 0.00 | 0.00 | 47 | 1012.8 |
| 20260504000157 | 10 | 2 | 3.2 | 4.8 | 0.00 | 0.00 | 0.00 | 49 | 1012.8 |
| 20260503235655 | 10 | 34 | 3.2 | 4.8 | 0.00 | 0.00 | 0.00 | 50 | 1012.9 |
| 20260503235151 | 10 | 32 | 1.6 | 4.8 | 0.00 | 0.00 | 0.00 | 47 | 1012.9 |
| 20260503234649 | 10 | 354 | 1.6 | 1.6 | 0.00 | 0.00 | 0.00 | 46 | 1012.7 |
| 20260503234147 | 10 | 45 | 0.0 | 1.6 | 0.00 | 0.00 | 0.00 | 50 | 1012.6 |
| 20260503233644 | 11 | 54 | 1.6 | 3.2 | 0.00 | 0.00 | 0.00 | 46 | 1012.5 |
| 20260503233139 | 11 | 13 | 1.6 | 12.9 | 0.00 | 0.00 | 0.00 | 47 | 1012.4 |
| 20260503232636 | 11 | 45 | 0.0 | 3.2 | 0.00 | 0.00 | 0.00 | 44 | 1012.3 |
| 20260503232134 | 11 | 68 | 1.6 | 1.6 | 0.00 | 0.00 | 0.00 | 47 | 1012.2 |
| 20260503231632 | 11 | 98 | 1.6 | 8.0 | 0.00 | 0.00 | 0.00 | 45 | 1012.3 |
| 20260503231128 | 11 | 311 | 1.6 | 3.2 | 0.00 | 0.00 | 0.00 | 43 | 1012.1 |
| 20260503230625 | 12 | 275 | 3.2 | 8.0 | 0.00 | 0.00 | 0.00 | 43 | 1012.2 |
| 20260503230122 | 12 | 21 | 0.0 | 9.7 | 0.00 | 0.00 | 0.00 | 40 | 1012.1 |
| 20260503225620 | 12 | 320 | 3.2 | 3.2 | 0.00 | 0.00 | 0.00 | 38 | 1012.1 |
| 20260503225119 | 12 | 329 | 1.6 | 1.6 | 0.00 | 0.00 | 0.00 | 38 | 1012.2 |
| 20260503224617 | 12 | 40 | 1.6 | 4.8 | 0.00 | 0.00 | 0.00 | 39 | 1012.0 |
| 20260503224115 | 12 | 236 | 4.8 | 8.0 | 0.00 | 0.00 | 0.00 | 37 | 1011.9 |
| 20260503223612 | 12 | 17 | 3.2 | 4.8 | 0.00 | 0.00 | 0.00 | 37 | 1012.1 |
| 20260503223108 | 12 | 357 | 4.8 | 9.7 | 0.00 | 0.00 | 0.00 | 35 | 1012.0 |
| 20260503222606 | 12 | 121 | 1.6 | 8.0 | 0.00 | 0.00 | 0.00 | 36 | 1011.8 |
| 20260503222103 | 12 | 325 | 3.2 | 4.8 | 0.00 | 0.00 | 0.00 | 37 | 1011.8 |
| 20260503221602 | 12 | 33 | 6.4 | 8.0 | 0.00 | 0.00 | 0.00 | 34 | 1011.8 |
| 20260503221059 | 12 | 55 | 0.0 | 8.0 | 0.00 | 0.00 | 0.00 | 35 | 1011.7 |
| 20260503220555 | 12 | 95 | 1.6 | 8.0 | 0.00 | 0.00 | 0.00 | 32 | 1011.9 |
| 20260503220052 | 12 | 5 | 6.4 | 14.5 | 0.00 | 0.00 | 0.00 | 33 | 1011.9 |
| 20260503215549 | 12 | 47 | 1.6 | 4.8 | 0.00 | 0.00 | 0.00 | 33 | 1011.7 |
| 20260503215046 | 13 | 259 | 4.8 | 11.3 | 0.00 | 0.00 | 0.00 | 31 | 1011.8 |
| 20260503214544 | 13 | 338 | 6.4 | 14.5 | 0.00 | 0.00 | 0.00 | 31 | 1011.7 |
| 20260503214040 | 13 | 26 | 0.0 | 4.8 | 0.00 | 0.00 | 0.00 | 30 | 1011.7 |
| 20260503213539 | 13 | 322 | 4.8 | 20.9 | 0.00 | 0.00 | 0.00 | 30 | 1011.6 |
| 20260503213035 | 14 | 258 | 9.7 | 12.9 | 0.00 | 0.00 | 0.00 | 27 | 1011.6 |
| 20260503212533 | 14 | 62 | 1.6 | 16.1 | 0.00 | 0.00 | 0.00 | 33 | 1011.8 |
| 20260503212030 | 14 | 29 | 3.2 | 4.8 | 0.00 | 0.00 | 0.00 | 29 | 1011.7 |
| 20260503211527 | 13 | 340 | 1.6 | 8.0 | 0.00 | 0.00 | 0.00 | 30 | 1011.8 |
| 20260503211022 | 13 | 269 | 8.0 | 11.3 | 0.00 | 0.00 | 0.00 | 31 | 1011.5 |
| 20260503210519 | 14 | 289 | 4.8 | 4.8 | 0.00 | 0.00 | 0.00 | 30 | 1011.5 |
| 20260503210015 | 14 | 25 | 1.6 | 4.8 | 0.00 | 0.00 | 0.00 | 32 | 1011.6 |
| 20260503205512 | 14 | 41 | 4.8 | 8.0 | 0.00 | 0.00 | 0.00 | 29 | 1011.4 |
| 20260503205008 | 13 | 52 | 1.6 | 9.7 | 0.00 | 0.00 | 0.00 | 32 | 1011.7 |
| 20260503204506 | 13 | 21 | 1.6 | 4.8 | 0.00 | 0.00 | 0.00 | 32 | 1011.8 |
| 20260503204002 | 12 | 10 | 3.2 | 4.8 | 0.00 | 0.00 | 0.00 | 35 | 1011.9 |
| 20260503203500 | 13 | 27 | 4.8 | 11.3 | 0.00 | 0.00 | 0.00 | 30 | 1011.8 |
| 20260503202956 | 13 | 330 | 3.2 | 4.8 | 0.00 | 0.00 | 0.00 | 30 | 1011.8 |
| 20260503202454 | 12 | 247 | 8.0 | 12.9 | 0.00 | 0.00 | 0.00 | 32 | 1011.9 |
| 20260503201953 | 13 | 347 | 9.7 | 11.3 | 0.00 | 0.00 | 0.00 | 31 | 1011.9 |
| 20260503201450 | 12 | 288 | 6.4 | 11.3 | 0.00 | 0.00 | 0.00 | 32 | 1011.9 |
| 20260503200947 | 13 | 281 | 4.8 | 16.1 | 0.00 | 0.00 | 0.00 | 33 | 1011.9 |
| 20260503200443 | 13 | 313 | 6.4 | 12.9 | 0.00 | 0.00 | 0.00 | 33 | 1012.0 |
| 20260503195940 | 14 | 271 | 3.2 | 12.9 | 0.00 | 0.00 | 0.00 | 36 | 1012.0 |
| 20260503195438 | 13 | 262 | 3.2 | 12.9 | 0.00 | 0.00 | 0.00 | 36 | 1012.1 |
| 20260503194934 | 13 | 297 | 9.7 | 17.7 | 0.00 | 0.00 | 0.00 | 32 | 1012.1 |
| 20260503194431 | 12 | 23 | 4.8 | 12.9 | 0.00 | 0.00 | 0.00 | 32 | 1012.0 |
| 20260503193926 | 13 | 322 | 6.4 | 9.7 | 0.00 | 0.00 | 0.00 | 32 | 1012.0 |
| 20260503193422 | 13 | 50 | 11.3 | 24.1 | 0.00 | 0.00 | 0.00 | 33 | 1012.2 |
| 20260503192917 | 13 | 23 | 4.8 | 9.7 | 0.00 | 0.00 | 0.00 | 34 | 1012.3 |
| 20260503192414 | 12 | 350 | 11.3 | 14.5 | 0.00 | 0.00 | 0.00 | 33 | 1012.4 |
| 20260503191910 | 12 | 188 | 3.2 | 4.8 | 0.00 | 0.00 | 0.00 | 39 | 1012.3 |
| 20260503191408 | 12 | 161 | 0.0 | 4.8 | 0.00 | 0.00 | 0.00 | 38 | 1012.7 |
| 20260503190904 | 11 | 302 | 4.8 | 14.5 | 0.00 | 0.00 | 0.00 | 36 | 1012.8 |
| 20260503190402 | 11 | 122 | 6.4 | 9.7 | 0.00 | 0.00 | 0.00 | 38 | 1012.7 |
| 20260503185858 | 11 | 279 | 3.2 | 12.9 | 0.00 | 0.00 | 0.00 | 37 | 1012.9 |
| 20260503185354 | 12 | 258 | 11.3 | 16.1 | 0.00 | 0.00 | 0.00 | 35 | 1012.7 |
| 20260503184854 | 11 | 311 | 8.0 | 11.3 | 0.00 | 0.00 | 0.00 | 36 | 1013.0 |
| 20260503184350 | 11 | 102 | 3.2 | 16.1 | 0.00 | 0.00 | 0.00 | 37 | 1013.0 |
| 20260503183846 | 11 | 359 | 1.6 | 9.7 | 0.00 | 0.00 | 0.00 | 39 | 1013.0 |
| 20260503183344 | 11 | 293 | 6.4 | 11.3 | 0.00 | 0.00 | 0.00 | 38 | 1013.0 |
| 20260503182841 | 11 | 8 | 3.2 | 11.3 | 0.00 | 0.00 | 0.00 | 40 | 1013.1 |
| 20260503182340 | 11 | 272 | 8.0 | 11.3 | 0.00 | 0.00 | 0.00 | 37 | 1013.0 |
| 20260503181837 | 11 | 358 | 8.0 | 9.7 | 0.00 | 0.00 | 0.00 | 37 | 1013.3 |
| 20260503181334 | 10 | 354 | 6.4 | 14.5 | 0.00 | 0.00 | 0.00 | 40 | 1013.3 |
| 20260503180830 | 10 | 43 | 3.2 | 9.7 | 0.00 | 0.00 | 0.00 | 40 | 1013.3 |
| 20260503180328 | 11 | 277 | 6.4 | 9.7 | 0.00 | 0.00 | 0.00 | 40 | 1013.2 |
| 20260503175824 | 11 | 27 | 4.8 | 9.7 | 0.00 | 0.00 | 0.00 | 41 | 1013.5 |
| 20260503175323 | 10 | 31 | 3.2 | 16.1 | 0.00 | 0.00 | 0.00 | 42 | 1013.4 |
| 20260503174817 | 10 | 35 | 4.8 | 11.3 | 0.00 | 0.00 | 0.00 | 41 | 1013.5 |
| 20260503174316 | 10 | 246 | 6.4 | 12.9 | 0.00 | 0.00 | 0.00 | 40 | 1013.3 |
| 20260503173811 | 10 | 177 | 1.6 | 4.8 | 0.00 | 0.00 | 0.00 | 41 | 1013.5 |
| 20260503173307 | 10 | 71 | 0.0 | 3.2 | 0.00 | 0.00 | 0.00 | 40 | 1013.5 |
| 20260503172805 | 10 | 291 | 4.8 | 12.9 | 0.00 | 0.00 | 0.00 | 40 | 1013.5 |
| 20260503172304 | 10 | 279 | 6.4 | 8.0 | 0.00 | 0.00 | 0.00 | 42 | 1013.5 |
| 20260503171758 | 10 | 281 | 6.4 | 9.7 | 0.00 | 0.00 | 0.00 | 41 | 1013.4 |
| 20260503171255 | 8 | 42 | 3.2 | 9.7 | 0.00 | 0.00 | 0.00 | 42 | 1013.6 |
| 20260503170752 | 8 | 8 | 3.2 | 12.9 | 0.00 | 0.00 | 0.00 | 42 | 1013.6 |
| 20260503170249 | 8 | 322 | 4.8 | 17.7 | 0.00 | 0.00 | 0.00 | 42 | 1013.6 |
| 20260503160211 | 9 | 315 | 3.2 | 8.0 | 0.00 | 0.00 | 0.00 | 40 | 1013.8 |
| 20260503150641 | 8 | 33 | 0.0 | 3.2 | 0.00 | 0.00 | 0.00 | 45 | 1013.7 |
| 20260503150137 | 8 | 11 | 3.2 | 8.0 | 0.00 | 0.00 | 0.00 | 42 | 1013.8 |
| 20260503131031 | 7 | 15 | 3.2 | 4.8 | 0.00 | 0.00 | 0.00 | 59 | 1014.1 |
| 20260503130528 | 7 | 292 | 3.2 | 4.8 | 0.00 | 0.00 | 0.00 | 58 | 1014.0 |
| 20260503110418 | 4 | 322 | 3.2 | 3.2 | 0.00 | 0.00 | 0.00 | 71 | 1013.5 |
| 20260503090304 | 2 | 44 | 1.6 | 1.6 | 0.00 | 0.00 | 0.00 | 80 | 1013.2 |
| 20260503081231 | 2 | 27 | 1.6 | 1.6 | 0.00 | 0.00 | 0.00 | 83 | 1013.4 |
| 20260503080726 | 1 | 61 | 0.0 | 1.6 | 0.00 | 0.00 | 0.00 | 84 | 1013.8 |
| 20260503080224 | 1 | 30 | 0.0 | 0.0 | 0.00 | 0.00 | 0.00 | 85 | 1013.6 |
| 20260503072701 | 1 | 45 | 0.0 | 1.6 | 0.00 | 0.00 | 0.00 | 85 | 1013.7 |
| 20260503072157 | 1 | 60 | 1.6 | 1.6 | 0.00 | 0.00 | 0.00 | 85 | 1013.8 |
| 20260503071654 | 1 | 54 | 1.6 | 3.2 | 0.00 | 0.00 | 0.00 | 85 | 1013.8 |